Tracking 28790 objects as of 19-Apr-2024
HD Live streaming from Space Station
objects crossing your sky now

NOAA 17 DEB

Track NOAA 17 DEB now!
10-day predictions


NORAD ID: 48717
Int'l Code: 2002-032BB
Perigee: 773.0 km
Apogee: 791.1 km
Inclination: 98.7 °
Period: 100.3 minutes
Semi major axis: 7153 km
RCS: Unknown
Launch date: June 24, 2002
Source: United States (US)
Launch site: AIR FORCE WESTERN TEST RANGE (AFWTR)

Note: This is SATELLITE DEBRIS
Your satellite tracking list
Your tracking list is empty




NASA's NSSDC Master Catalog

Two Line Element Set (TLE):
1 48717U 02032BA  24109.70513925  .00015142  00000-0  53114-2 0  9991
2 48717  98.7341  67.3862 0012614  96.3364 263.9258 14.35048089161070
Source of the keplerian elements: AFSPC